{"data":{"norad_id":53848,"epoch":"2026-09-20T22:53:49.464672Z","epoch_age_seconds":45086,"freshness":"FRESH","line1":"1 53848U 22114AG  26263.95404473  .00000142  00000+0  27025-4 0  9999","line2":"2 53848  53.1589 136.6141 0001310  90.8361 269.2780 15.08834030222456","mean_motion":15.0883403,"eccentricity":0.000131,"inclination_deg":53.1589,"raan_deg":136.6141,"arg_perigee_deg":90.8361,"mean_anomaly_deg":269.278,"bstar":2.7025e-5,"rev_number":22245,"period_min":95.43793229531,"perigee_km":538.8553922045,"apogee_km":540.66788164737,"semimajor_km":6917.8986369259,"source":"CELESTRAK","updated_at":"2026-09-21T09:00:33.022590Z"}}